Hourly Data Report for September 22, 2017

All times are specified in Local Standard Time (LST). Add 1 hour to adjust for Daylight Saving Time where and when it is observed.

CHARLOTTETOWN A
PRINCE EDWARD ISLAND

46°17'21.000" N
63°07'09.000" W
48.50 m
8300301
71706
YYG

Download Data

Hourly Data (September 2017)
Hourly Data Report for September 22, 2017
Temp Definition
°C
Dew Point Temp Definition
°C
Rel Hum Definition
%
Wind Dir Definition
10's deg

Wind Spd Definition
km/h
Visibility Definition
km
Stn Press Definition
kPa
Hmdx Definition


Wind Chill Definition


Weather Definition


TIME
00:00 Legend Double Dagger 7.1 6.2 94 36 1 24.1 101.77     LegendNANA
01:00 Legend Double Dagger 5.7 5.0 95 5 4 24.1 101.78     LegendNANA
02:00 Legend Double Dagger 6.0 5.3 95 36 2 24.1 101.75     Clear
03:00 Legend Double Dagger 5.3 4.8 97 34 7 24.1 101.76     LegendNANA
04:00 Legend Double Dagger 5.2 4.6 96 36 3 24.1 101.74     LegendNANA
05:00 Legend Double Dagger 4.4 3.9 97 35 3 24.1 101.71     Mainly Clear
06:00 Legend Double Dagger 4.2 3.7 97 36 2 24.1 101.75     LegendNANA
07:00 Legend Double Dagger 5.6 5.2 97 34 4 24.1 101.77     LegendNANA
08:00 Legend Double Dagger 12.1 11.6 97 10 3 24.1 101.79     Mainly Clear
09:00 Legend Double Dagger 14.3 11.5 83 5 6 24.1 101.80     LegendNANA
10:00 Legend Double Dagger 16.0 10.6 70 11 6 24.1 101.77     LegendNANA
11:00 Legend Double Dagger 17.3 11.0 66 16 3 24.1 101.71     Mainly Clear
12:00 Legend Double Dagger 17.6 6.9 49 36 2 24.1 101.65     LegendNANA
13:00 Legend Double Dagger 19.2 6.8 44 6 4 24.1 101.60     LegendNANA
14:00 Legend Double Dagger 20.0 7.3 43 36 3 24.1 101.55     Mainly Clear
15:00 Legend Double Dagger 18.8 11.0 60 2 10 24.1 101.51     LegendNANA
16:00 Legend Double Dagger 19.1 11.1 59 7 5 24.1 101.48     LegendNANA
17:00 Legend Double Dagger 17.1 10.3 64 4 14 24.1 101.47     Clear
18:00 Legend Double Dagger 14.7 9.8 72 36 3 24.1 101.45     LegendNANA
19:00 Legend Double Dagger 14.2 10.4 78 15 9 24.1 101.43     LegendNANA
20:00 Legend Double Dagger 11.1 9.6 90 15 4 24.1 101.40     Clear
21:00 Legend Double Dagger 12.4 10.9 90 15 6 24.1 101.36     LegendNANA
22:00 Legend Double Dagger 12.3 11.4 94 18 8 24.1 101.34     LegendNANA
23:00 Legend Double Dagger 10.5 9.7 95 20 4 24.1 101.33     Clear

Notes on Data Quality.

Legend

  • E = Estimated
  • M = Missing
  • NA = Not Available
  • ‡ = Partner data that is not subject to review by the National Climate Archives
Date modified: